<?xml version="1.0" encoding="UTF-8" standalone="no" ?>
<gpx xmlns="http://www.topografix.com/GPX/1/1" xmlns:xsi="http://www.w3.org/2001/XMLSchema-instance" xsi:schemaLocation="http://www.topografix.com/GPX/1/1 http://www.topografix.com/GPX/1/1/gpx.xsd" version="1.1" creator="VisuGPX - https://www.visugpx.com">
  <metadata>
    <name>Belle-isle-en-terre - 21.11 km - RANDO MUCO 2023</name>
  </metadata>
  <wpt lat="48.52115" lon="-3.34047">
    <ele>189</ele>
    <name><![CDATA[Ravitaillement]]></name>
  </wpt>
  <wpt lat="48.5169" lon="-3.40809">
    <ele>134.9</ele>
    <name><![CDATA[Ravitaillement]]></name>
  </wpt>
  <wpt lat="48.52997" lon="-3.41652">
    <ele>174.5</ele>
    <name><![CDATA[Ravitaillement]]></name>
  </wpt>
  <trk>
    <name><![CDATA[Pédestre 23km 2023-10532213]]></name>
    <extensions>
      <line xmlns="http://www.topografix.com/GPX/gpx_style/0/2">
        <color>0000FF</color>
        <width>4</width>
      </line>
    </extensions>
    <trkseg>
      <trkpt lat="48.54651" lon="-3.39649">
        <ele>90</ele>
        <time>2023-04-13T07:22:11Z</time>
      </trkpt>
      <trkpt lat="48.54624" lon="-3.39558">
        <ele>91</ele>
        <time>2023-04-13T07:23:39Z</time>
      </trkpt>
      <trkpt lat="48.54554" lon="-3.39555">
        <ele>92</ele>
        <time>2023-04-13T07:25:13Z</time>
      </trkpt>
      <trkpt lat="48.54515" lon="-3.39576">
        <ele>93</ele>
        <time>2023-04-13T07:26:08Z</time>
      </trkpt>
      <trkpt lat="48.54472" lon="-3.39602">
        <ele>94</ele>
        <time>2023-04-13T07:27:10Z</time>
      </trkpt>
      <trkpt lat="48.54418" lon="-3.39607">
        <ele>94</ele>
        <time>2023-04-13T07:28:22Z</time>
      </trkpt>
      <trkpt lat="48.54376" lon="-3.39573">
        <ele>95</ele>
        <time>2023-04-13T07:29:25Z</time>
      </trkpt>
      <trkpt lat="48.54281" lon="-3.39576">
        <ele>98</ele>
        <time>2023-04-13T07:31:32Z</time>
      </trkpt>
      <trkpt lat="48.54278" lon="-3.39667">
        <ele>97</ele>
        <time>2023-04-13T07:32:53Z</time>
      </trkpt>
      <trkpt lat="48.54195" lon="-3.3966">
        <ele>101</ele>
        <time>2023-04-13T07:34:44Z</time>
      </trkpt>
      <trkpt lat="48.54152" lon="-3.39675">
        <ele>101</ele>
        <time>2023-04-13T07:35:43Z</time>
      </trkpt>
      <trkpt lat="48.54102" lon="-3.3967">
        <ele>103</ele>
        <time>2023-04-13T07:36:49Z</time>
      </trkpt>
      <trkpt lat="48.54048" lon="-3.39683">
        <ele>104</ele>
        <time>2023-04-13T07:38:02Z</time>
      </trkpt>
      <trkpt lat="48.53976" lon="-3.39691">
        <ele>104</ele>
        <time>2023-04-13T07:39:39Z</time>
      </trkpt>
      <trkpt lat="48.5392" lon="-3.39639">
        <ele>107</ele>
        <time>2023-04-13T07:41:06Z</time>
      </trkpt>
      <trkpt lat="48.53848" lon="-3.39513">
        <ele>105</ele>
        <time>2023-04-13T07:43:33Z</time>
      </trkpt>
      <trkpt lat="48.53843" lon="-3.39419">
        <ele>108</ele>
        <time>2023-04-13T07:44:57Z</time>
      </trkpt>
      <trkpt lat="48.53796" lon="-3.39245">
        <ele>122</ele>
        <time>2023-04-13T07:47:43Z</time>
      </trkpt>
      <trkpt lat="48.53735" lon="-3.39211">
        <ele>119</ele>
        <time>2023-04-13T07:49:10Z</time>
      </trkpt>
      <trkpt lat="48.53692" lon="-3.39179">
        <ele>123</ele>
        <time>2023-04-13T07:50:14Z</time>
      </trkpt>
      <trkpt lat="48.53647" lon="-3.39192">
        <ele>121</ele>
        <time>2023-04-13T07:51:15Z</time>
      </trkpt>
      <trkpt lat="48.53591" lon="-3.39169">
        <ele>127</ele>
        <time>2023-04-13T07:52:32Z</time>
      </trkpt>
      <trkpt lat="48.53568" lon="-3.39185">
        <ele>124</ele>
        <time>2023-04-13T07:53:06Z</time>
      </trkpt>
      <trkpt lat="48.5352" lon="-3.39148">
        <ele>131</ele>
        <time>2023-04-13T07:54:18Z</time>
      </trkpt>
      <trkpt lat="48.53482" lon="-3.39166">
        <ele>130</ele>
        <time>2023-04-13T07:55:11Z</time>
      </trkpt>
      <trkpt lat="48.53419" lon="-3.39182">
        <ele>124</ele>
        <time>2023-04-13T07:56:36Z</time>
      </trkpt>
      <trkpt lat="48.53363" lon="-3.392">
        <ele>117</ele>
        <time>2023-04-13T07:57:53Z</time>
      </trkpt>
      <trkpt lat="48.53316" lon="-3.39294">
        <ele>105</ele>
        <time>2023-04-13T07:59:37Z</time>
      </trkpt>
      <trkpt lat="48.53223" lon="-3.39339">
        <ele>108</ele>
        <time>2023-04-13T08:01:47Z</time>
      </trkpt>
      <trkpt lat="48.53153" lon="-3.39375">
        <ele>110</ele>
        <time>2023-04-13T08:03:26Z</time>
      </trkpt>
      <trkpt lat="48.53072" lon="-3.39399">
        <ele>112</ele>
        <time>2023-04-13T08:05:16Z</time>
      </trkpt>
      <trkpt lat="48.53009" lon="-3.39399">
        <ele>112</ele>
        <time>2023-04-13T08:06:40Z</time>
      </trkpt>
      <trkpt lat="48.52957" lon="-3.39406">
        <ele>108</ele>
        <time>2023-04-13T08:07:50Z</time>
      </trkpt>
      <trkpt lat="48.5293" lon="-3.39328">
        <ele>119</ele>
        <time>2023-04-13T08:09:07Z</time>
      </trkpt>
      <trkpt lat="48.52875" lon="-3.39294">
        <ele>115</ele>
        <time>2023-04-13T08:10:27Z</time>
      </trkpt>
      <trkpt lat="48.52806" lon="-3.39305">
        <ele>108</ele>
        <time>2023-04-13T08:11:59Z</time>
      </trkpt>
      <trkpt lat="48.52722" lon="-3.39302">
        <ele>108</ele>
        <time>2023-04-13T08:13:51Z</time>
      </trkpt>
      <trkpt lat="48.52637" lon="-3.39297">
        <ele>114</ele>
        <time>2023-04-13T08:15:45Z</time>
      </trkpt>
      <trkpt lat="48.52682" lon="-3.39221">
        <ele>117</ele>
        <time>2023-04-13T08:17:15Z</time>
      </trkpt>
      <trkpt lat="48.52702" lon="-3.39116">
        <ele>122</ele>
        <time>2023-04-13T08:18:52Z</time>
      </trkpt>
      <trkpt lat="48.52722" lon="-3.39035">
        <ele>125</ele>
        <time>2023-04-13T08:20:08Z</time>
      </trkpt>
      <trkpt lat="48.52735" lon="-3.38933">
        <ele>130</ele>
        <time>2023-04-13T08:21:40Z</time>
      </trkpt>
      <trkpt lat="48.52672" lon="-3.38785">
        <ele>149</ele>
        <time>2023-04-13T08:24:15Z</time>
      </trkpt>
      <trkpt lat="48.52699" lon="-3.38659">
        <ele>150</ele>
        <time>2023-04-13T08:26:12Z</time>
      </trkpt>
      <trkpt lat="48.52659" lon="-3.38571">
        <ele>154</ele>
        <time>2023-04-13T08:27:47Z</time>
      </trkpt>
      <trkpt lat="48.5263" lon="-3.38589">
        <ele>156</ele>
        <time>2023-04-13T08:28:29Z</time>
      </trkpt>
      <trkpt lat="48.52575" lon="-3.38565">
        <ele>161</ele>
        <time>2023-04-13T08:29:45Z</time>
      </trkpt>
      <trkpt lat="48.52528" lon="-3.38531">
        <ele>166</ele>
        <time>2023-04-13T08:30:54Z</time>
      </trkpt>
      <trkpt lat="48.52553" lon="-3.38477">
        <ele>166</ele>
        <time>2023-04-13T08:31:53Z</time>
      </trkpt>
      <trkpt lat="48.52684" lon="-3.38307">
        <ele>171</ele>
        <time>2023-04-13T08:35:43Z</time>
      </trkpt>
      <trkpt lat="48.5269" lon="-3.3827">
        <ele>173</ele>
        <time>2023-04-13T08:36:17Z</time>
      </trkpt>
      <trkpt lat="48.5279" lon="-3.38302">
        <ele>170</ele>
        <time>2023-04-13T08:38:33Z</time>
      </trkpt>
      <trkpt lat="48.52699" lon="-3.38182">
        <ele>177</ele>
        <time>2023-04-13T08:41:15Z</time>
      </trkpt>
      <trkpt lat="48.52657" lon="-3.38106">
        <ele>183</ele>
        <time>2023-04-13T08:42:42Z</time>
      </trkpt>
      <trkpt lat="48.52603" lon="-3.38049">
        <ele>186</ele>
        <time>2023-04-13T08:44:10Z</time>
      </trkpt>
      <trkpt lat="48.52541" lon="-3.38025">
        <ele>190</ele>
        <time>2023-04-13T08:45:35Z</time>
      </trkpt>
      <trkpt lat="48.52458" lon="-3.38025">
        <ele>195</ele>
        <time>2023-04-13T08:47:26Z</time>
      </trkpt>
      <trkpt lat="48.52399" lon="-3.38017">
        <ele>198</ele>
        <time>2023-04-13T08:48:45Z</time>
      </trkpt>
      <trkpt lat="48.52339" lon="-3.37983">
        <ele>201</ele>
        <time>2023-04-13T08:50:11Z</time>
      </trkpt>
      <trkpt lat="48.523" lon="-3.37944">
        <ele>201</ele>
        <time>2023-04-13T08:51:13Z</time>
      </trkpt>
      <trkpt lat="48.52224" lon="-3.37855">
        <ele>202</ele>
        <time>2023-04-13T08:53:21Z</time>
      </trkpt>
      <trkpt lat="48.52181" lon="-3.37835">
        <ele>201</ele>
        <time>2023-04-13T08:54:21Z</time>
      </trkpt>
      <trkpt lat="48.5207" lon="-3.37819">
        <ele>204</ele>
        <time>2023-04-13T08:56:50Z</time>
      </trkpt>
      <trkpt lat="48.52028" lon="-3.37808">
        <ele>205</ele>
        <time>2023-04-13T08:57:47Z</time>
      </trkpt>
      <trkpt lat="48.52003" lon="-3.37738">
        <ele>207</ele>
        <time>2023-04-13T08:58:57Z</time>
      </trkpt>
      <trkpt lat="48.52023" lon="-3.37615">
        <ele>207</ele>
        <time>2023-04-13T09:00:49Z</time>
      </trkpt>
      <trkpt lat="48.5209" lon="-3.37461">
        <ele>205</ele>
        <time>2023-04-13T09:03:32Z</time>
      </trkpt>
      <trkpt lat="48.52154" lon="-3.37357">
        <ele>206</ele>
        <time>2023-04-13T09:05:38Z</time>
      </trkpt>
      <trkpt lat="48.52201" lon="-3.37375">
        <ele>205</ele>
        <time>2023-04-13T09:06:42Z</time>
      </trkpt>
      <trkpt lat="48.52264" lon="-3.37435">
        <ele>205</ele>
        <time>2023-04-13T09:08:22Z</time>
      </trkpt>
      <trkpt lat="48.52252" lon="-3.37403">
        <ele>205</ele>
        <time>2023-04-13T09:08:54Z</time>
      </trkpt>
      <trkpt lat="48.52276" lon="-3.37376">
        <ele>204</ele>
        <time>2023-04-13T09:09:34Z</time>
      </trkpt>
      <trkpt lat="48.5238" lon="-3.37337">
        <ele>202</ele>
        <time>2023-04-13T09:11:57Z</time>
      </trkpt>
      <trkpt lat="48.52403" lon="-3.3732">
        <ele>201</ele>
        <time>2023-04-13T09:12:31Z</time>
      </trkpt>
      <trkpt lat="48.52417" lon="-3.37291">
        <ele>199</ele>
        <time>2023-04-13T09:13:03Z</time>
      </trkpt>
      <trkpt lat="48.52413" lon="-3.37171">
        <ele>189</ele>
        <time>2023-04-13T09:14:49Z</time>
      </trkpt>
      <trkpt lat="48.52459" lon="-3.37161">
        <ele>188</ele>
        <time>2023-04-13T09:15:51Z</time>
      </trkpt>
      <trkpt lat="48.52488" lon="-3.37146">
        <ele>187</ele>
        <time>2023-04-13T09:16:32Z</time>
      </trkpt>
      <trkpt lat="48.52471" lon="-3.37126">
        <ele>185</ele>
        <time>2023-04-13T09:17:01Z</time>
      </trkpt>
      <trkpt lat="48.52454" lon="-3.37019">
        <ele>177</ele>
        <time>2023-04-13T09:18:38Z</time>
      </trkpt>
      <trkpt lat="48.52461" lon="-3.3681">
        <ele>163</ele>
        <time>2023-04-13T09:21:43Z</time>
      </trkpt>
      <trkpt lat="48.5245" lon="-3.36759">
        <ele>161</ele>
        <time>2023-04-13T09:22:31Z</time>
      </trkpt>
      <trkpt lat="48.52388" lon="-3.36627">
        <ele>161</ele>
        <time>2023-04-13T09:24:54Z</time>
      </trkpt>
      <trkpt lat="48.52356" lon="-3.36487">
        <ele>156</ele>
        <time>2023-04-13T09:27:05Z</time>
      </trkpt>
      <trkpt lat="48.52361" lon="-3.36463">
        <ele>156</ele>
        <time>2023-04-13T09:27:27Z</time>
      </trkpt>
      <trkpt lat="48.52325" lon="-3.36294">
        <ele>154</ele>
        <time>2023-04-13T09:30:04Z</time>
      </trkpt>
      <trkpt lat="48.52286" lon="-3.36134">
        <ele>145</ele>
        <time>2023-04-13T09:32:34Z</time>
      </trkpt>
      <trkpt lat="48.52265" lon="-3.36138">
        <ele>143</ele>
        <time>2023-04-13T09:33:03Z</time>
      </trkpt>
      <trkpt lat="48.52247" lon="-3.36116">
        <ele>141</ele>
        <time>2023-04-13T09:33:34Z</time>
      </trkpt>
      <trkpt lat="48.52193" lon="-3.36009">
        <ele>140</ele>
        <time>2023-04-13T09:35:32Z</time>
      </trkpt>
      <trkpt lat="48.52117" lon="-3.35985">
        <ele>143</ele>
        <time>2023-04-13T09:37:16Z</time>
      </trkpt>
      <trkpt lat="48.52091" lon="-3.35963">
        <ele>144</ele>
        <time>2023-04-13T09:37:56Z</time>
      </trkpt>
      <trkpt lat="48.52081" lon="-3.35965">
        <ele>145</ele>
        <time>2023-04-13T09:38:09Z</time>
      </trkpt>
      <trkpt lat="48.52018" lon="-3.35925">
        <ele>149</ele>
        <time>2023-04-13T09:39:41Z</time>
      </trkpt>
      <trkpt lat="48.51965" lon="-3.35892">
        <ele>150</ele>
        <time>2023-04-13T09:40:57Z</time>
      </trkpt>
      <trkpt lat="48.51941" lon="-3.35702">
        <ele>145</ele>
        <time>2023-04-13T09:43:48Z</time>
      </trkpt>
      <trkpt lat="48.51915" lon="-3.35617">
        <ele>142</ele>
        <time>2023-04-13T09:45:11Z</time>
      </trkpt>
      <trkpt lat="48.51931" lon="-3.35458">
        <ele>137</ele>
        <time>2023-04-13T09:47:33Z</time>
      </trkpt>
      <trkpt lat="48.52" lon="-3.3492">
        <ele>153</ele>
        <time>2023-04-13T09:55:37Z</time>
      </trkpt>
      <trkpt lat="48.52108" lon="-3.34039">
        <ele>192</ele>
        <time>2023-04-13T10:08:49Z</time>
      </trkpt>
      <trkpt lat="48.51706" lon="-3.34576">
        <ele>165</ele>
        <time>2023-04-13T10:20:45Z</time>
      </trkpt>
      <trkpt lat="48.51493" lon="-3.34876">
        <ele>159</ele>
        <time>2023-04-13T10:27:14Z</time>
      </trkpt>
      <trkpt lat="48.5132" lon="-3.35131">
        <ele>159</ele>
        <time>2023-04-13T10:32:37Z</time>
      </trkpt>
      <trkpt lat="48.51261" lon="-3.35197">
        <ele>155</ele>
        <time>2023-04-13T10:34:15Z</time>
      </trkpt>
      <trkpt lat="48.51224" lon="-3.35261">
        <ele>148</ele>
        <time>2023-04-13T10:35:30Z</time>
      </trkpt>
      <trkpt lat="48.51269" lon="-3.35279">
        <ele>148</ele>
        <time>2023-04-13T10:36:32Z</time>
      </trkpt>
      <trkpt lat="48.51258" lon="-3.35305">
        <ele>148</ele>
        <time>2023-04-13T10:36:59Z</time>
      </trkpt>
      <trkpt lat="48.51249" lon="-3.35421">
        <ele>157</ele>
        <time>2023-04-13T10:38:43Z</time>
      </trkpt>
      <trkpt lat="48.51272" lon="-3.35608">
        <ele>175</ele>
        <time>2023-04-13T10:41:31Z</time>
      </trkpt>
      <trkpt lat="48.51248" lon="-3.35763">
        <ele>185</ele>
        <time>2023-04-13T10:43:51Z</time>
      </trkpt>
      <trkpt lat="48.51249" lon="-3.36465">
        <ele>261</ele>
        <time>2023-04-13T10:54:12Z</time>
      </trkpt>
      <trkpt lat="48.51171" lon="-3.36759">
        <ele>258</ele>
        <time>2023-04-13T10:58:52Z</time>
      </trkpt>
      <trkpt lat="48.51313" lon="-3.36874">
        <ele>259</ele>
        <time>2023-04-13T11:02:27Z</time>
      </trkpt>
      <trkpt lat="48.51194" lon="-3.37409">
        <ele>221</ele>
        <time>2023-04-13T11:10:46Z</time>
      </trkpt>
      <trkpt lat="48.51426" lon="-3.37538">
        <ele>203</ele>
        <time>2023-04-13T11:16:16Z</time>
      </trkpt>
      <trkpt lat="48.51392" lon="-3.37708">
        <ele>192</ele>
        <time>2023-04-13T11:18:53Z</time>
      </trkpt>
      <trkpt lat="48.51371" lon="-3.37822">
        <ele>186</ele>
        <time>2023-04-13T11:20:37Z</time>
      </trkpt>
      <trkpt lat="48.51394" lon="-3.37889">
        <ele>180</ele>
        <time>2023-04-13T11:21:44Z</time>
      </trkpt>
      <trkpt lat="48.51461" lon="-3.37918">
        <ele>179</ele>
        <time>2023-04-13T11:23:17Z</time>
      </trkpt>
      <trkpt lat="48.51515" lon="-3.37987">
        <ele>173</ele>
        <time>2023-04-13T11:24:52Z</time>
      </trkpt>
      <trkpt lat="48.51536" lon="-3.38112">
        <ele>168</ele>
        <time>2023-04-13T11:26:46Z</time>
      </trkpt>
      <trkpt lat="48.5156" lon="-3.38234">
        <ele>163</ele>
        <time>2023-04-13T11:28:38Z</time>
      </trkpt>
      <trkpt lat="48.51596" lon="-3.38401">
        <ele>160</ele>
        <time>2023-04-13T11:31:13Z</time>
      </trkpt>
      <trkpt lat="48.51646" lon="-3.38665">
        <ele>164</ele>
        <time>2023-04-13T11:35:16Z</time>
      </trkpt>
      <trkpt lat="48.51693" lon="-3.3869">
        <ele>164</ele>
        <time>2023-04-13T11:36:23Z</time>
      </trkpt>
      <trkpt lat="48.51726" lon="-3.38722">
        <ele>163</ele>
        <time>2023-04-13T11:37:15Z</time>
      </trkpt>
      <trkpt lat="48.51754" lon="-3.38754">
        <ele>162</ele>
        <time>2023-04-13T11:38:02Z</time>
      </trkpt>
      <trkpt lat="48.51784" lon="-3.38767">
        <ele>162</ele>
        <time>2023-04-13T11:38:43Z</time>
      </trkpt>
      <trkpt lat="48.5182" lon="-3.38769">
        <ele>160</ele>
        <time>2023-04-13T11:39:31Z</time>
      </trkpt>
      <trkpt lat="48.51855" lon="-3.38773">
        <ele>158</ele>
        <time>2023-04-13T11:40:18Z</time>
      </trkpt>
      <trkpt lat="48.51864" lon="-3.38777">
        <ele>158</ele>
        <time>2023-04-13T11:40:31Z</time>
      </trkpt>
      <trkpt lat="48.51899" lon="-3.38786">
        <ele>156</ele>
        <time>2023-04-13T11:41:18Z</time>
      </trkpt>
      <trkpt lat="48.51935" lon="-3.38812">
        <ele>155</ele>
        <time>2023-04-13T11:42:11Z</time>
      </trkpt>
      <trkpt lat="48.51963" lon="-3.38859">
        <ele>154</ele>
        <time>2023-04-13T11:43:07Z</time>
      </trkpt>
      <trkpt lat="48.52015" lon="-3.38945">
        <ele>149</ele>
        <time>2023-04-13T11:44:50Z</time>
      </trkpt>
      <trkpt lat="48.52058" lon="-3.39016">
        <ele>141</ele>
        <time>2023-04-13T11:46:15Z</time>
      </trkpt>
      <trkpt lat="48.52075" lon="-3.3905">
        <ele>136</ele>
        <time>2023-04-13T11:46:53Z</time>
      </trkpt>
      <trkpt lat="48.52096" lon="-3.39104">
        <ele>133</ele>
        <time>2023-04-13T11:47:48Z</time>
      </trkpt>
      <trkpt lat="48.52117" lon="-3.39173">
        <ele>132</ele>
        <time>2023-04-13T11:48:55Z</time>
      </trkpt>
      <trkpt lat="48.52082" lon="-3.39151">
        <ele>139</ele>
        <time>2023-04-13T11:49:46Z</time>
      </trkpt>
      <trkpt lat="48.52047" lon="-3.39143">
        <ele>151</ele>
        <time>2023-04-13T11:50:33Z</time>
      </trkpt>
      <trkpt lat="48.52019" lon="-3.39085">
        <ele>157</ele>
        <time>2023-04-13T11:51:37Z</time>
      </trkpt>
      <trkpt lat="48.51984" lon="-3.39062">
        <ele>165</ele>
        <time>2023-04-13T11:52:28Z</time>
      </trkpt>
      <trkpt lat="48.51992" lon="-3.39159">
        <ele>169</ele>
        <time>2023-04-13T11:53:54Z</time>
      </trkpt>
      <trkpt lat="48.51976" lon="-3.39215">
        <ele>171</ele>
        <time>2023-04-13T11:54:48Z</time>
      </trkpt>
      <trkpt lat="48.51962" lon="-3.39239">
        <ele>172</ele>
        <time>2023-04-13T11:55:16Z</time>
      </trkpt>
      <trkpt lat="48.51912" lon="-3.3921">
        <ele>180</ele>
        <time>2023-04-13T11:56:28Z</time>
      </trkpt>
      <trkpt lat="48.51866" lon="-3.39188">
        <ele>184</ele>
        <time>2023-04-13T11:57:32Z</time>
      </trkpt>
      <trkpt lat="48.51825" lon="-3.39181">
        <ele>185</ele>
        <time>2023-04-13T11:58:27Z</time>
      </trkpt>
      <trkpt lat="48.51782" lon="-3.39198">
        <ele>183</ele>
        <time>2023-04-13T11:59:26Z</time>
      </trkpt>
      <trkpt lat="48.51738" lon="-3.39224">
        <ele>183</ele>
        <time>2023-04-13T12:00:30Z</time>
      </trkpt>
      <trkpt lat="48.51734" lon="-3.39261">
        <ele>182</ele>
        <time>2023-04-13T12:01:03Z</time>
      </trkpt>
      <trkpt lat="48.51697" lon="-3.3931">
        <ele>181</ele>
        <time>2023-04-13T12:02:08Z</time>
      </trkpt>
      <trkpt lat="48.51641" lon="-3.39348">
        <ele>180</ele>
        <time>2023-04-13T12:03:30Z</time>
      </trkpt>
      <trkpt lat="48.51637" lon="-3.39388">
        <ele>178</ele>
        <time>2023-04-13T12:04:06Z</time>
      </trkpt>
      <trkpt lat="48.51633" lon="-3.39415">
        <ele>177</ele>
        <time>2023-04-13T12:04:30Z</time>
      </trkpt>
      <trkpt lat="48.51636" lon="-3.39486">
        <ele>174</ele>
        <time>2023-04-13T12:05:33Z</time>
      </trkpt>
      <trkpt lat="48.51642" lon="-3.39599">
        <ele>170</ele>
        <time>2023-04-13T12:07:14Z</time>
      </trkpt>
      <trkpt lat="48.51659" lon="-3.39703">
        <ele>165</ele>
        <time>2023-04-13T12:08:48Z</time>
      </trkpt>
      <trkpt lat="48.5162" lon="-3.39722">
        <ele>166</ele>
        <time>2023-04-13T12:09:43Z</time>
      </trkpt>
      <trkpt lat="48.51611" lon="-3.39821">
        <ele>163</ele>
        <time>2023-04-13T12:11:11Z</time>
      </trkpt>
      <trkpt lat="48.51597" lon="-3.39871">
        <ele>164</ele>
        <time>2023-04-13T12:11:59Z</time>
      </trkpt>
      <trkpt lat="48.51581" lon="-3.39921">
        <ele>165</ele>
        <time>2023-04-13T12:12:48Z</time>
      </trkpt>
      <trkpt lat="48.51606" lon="-3.39947">
        <ele>165</ele>
        <time>2023-04-13T12:13:29Z</time>
      </trkpt>
      <trkpt lat="48.51646" lon="-3.39936">
        <ele>162</ele>
        <time>2023-04-13T12:14:23Z</time>
      </trkpt>
      <trkpt lat="48.51806" lon="-3.40116">
        <ele>145</ele>
        <time>2023-04-13T12:18:49Z</time>
      </trkpt>
      <trkpt lat="48.51811" lon="-3.40156">
        <ele>144</ele>
        <time>2023-04-13T12:19:25Z</time>
      </trkpt>
      <trkpt lat="48.51766" lon="-3.40273">
        <ele>148</ele>
        <time>2023-04-13T12:21:25Z</time>
      </trkpt>
      <trkpt lat="48.51761" lon="-3.4034">
        <ele>145</ele>
        <time>2023-04-13T12:22:25Z</time>
      </trkpt>
      <trkpt lat="48.51741" lon="-3.40391">
        <ele>148</ele>
        <time>2023-04-13T12:23:17Z</time>
      </trkpt>
      <trkpt lat="48.51732" lon="-3.40553">
        <ele>143</ele>
        <time>2023-04-13T12:25:41Z</time>
      </trkpt>
      <trkpt lat="48.5172" lon="-3.40607">
        <ele>141</ele>
        <time>2023-04-13T12:26:31Z</time>
      </trkpt>
      <trkpt lat="48.51714" lon="-3.40755">
        <ele>134</ele>
        <time>2023-04-13T12:28:42Z</time>
      </trkpt>
      <trkpt lat="48.51692" lon="-3.40816">
        <ele>134</ele>
        <time>2023-04-13T12:29:43Z</time>
      </trkpt>
      <trkpt lat="48.51721" lon="-3.40801">
        <ele>131</ele>
        <time>2023-04-13T12:30:24Z</time>
      </trkpt>
      <trkpt lat="48.5174" lon="-3.40742">
        <ele>130</ele>
        <time>2023-04-13T12:31:22Z</time>
      </trkpt>
      <trkpt lat="48.51758" lon="-3.40632">
        <ele>131</ele>
        <time>2023-04-13T12:33:03Z</time>
      </trkpt>
      <trkpt lat="48.51784" lon="-3.40501">
        <ele>129</ele>
        <time>2023-04-13T12:35:03Z</time>
      </trkpt>
      <trkpt lat="48.51867" lon="-3.40192">
        <ele>123</ele>
        <time>2023-04-13T12:39:58Z</time>
      </trkpt>
      <trkpt lat="48.5191" lon="-3.40131">
        <ele>112</ele>
        <time>2023-04-13T12:41:17Z</time>
      </trkpt>
      <trkpt lat="48.51925" lon="-3.40185">
        <ele>105</ele>
        <time>2023-04-13T12:42:09Z</time>
      </trkpt>
      <trkpt lat="48.51934" lon="-3.4024">
        <ele>107</ele>
        <time>2023-04-13T12:42:59Z</time>
      </trkpt>
      <trkpt lat="48.5193" lon="-3.40299">
        <ele>110</ele>
        <time>2023-04-13T12:43:51Z</time>
      </trkpt>
      <trkpt lat="48.51935" lon="-3.40361">
        <ele>114</ele>
        <time>2023-04-13T12:44:46Z</time>
      </trkpt>
      <trkpt lat="48.51985" lon="-3.4036">
        <ele>121</ele>
        <time>2023-04-13T12:45:53Z</time>
      </trkpt>
      <trkpt lat="48.52017" lon="-3.40336">
        <ele>121</ele>
        <time>2023-04-13T12:46:41Z</time>
      </trkpt>
      <trkpt lat="48.52083" lon="-3.40347">
        <ele>126</ele>
        <time>2023-04-13T12:48:09Z</time>
      </trkpt>
      <trkpt lat="48.52167" lon="-3.40394">
        <ele>131</ele>
        <time>2023-04-13T12:50:09Z</time>
      </trkpt>
      <trkpt lat="48.52168" lon="-3.40553">
        <ele>147</ele>
        <time>2023-04-13T12:52:29Z</time>
      </trkpt>
      <trkpt lat="48.52183" lon="-3.40677">
        <ele>155</ele>
        <time>2023-04-13T12:54:21Z</time>
      </trkpt>
      <trkpt lat="48.52184" lon="-3.4077">
        <ele>159</ele>
        <time>2023-04-13T12:55:43Z</time>
      </trkpt>
      <trkpt lat="48.522" lon="-3.4089">
        <ele>158</ele>
        <time>2023-04-13T12:57:31Z</time>
      </trkpt>
      <trkpt lat="48.52209" lon="-3.40974">
        <ele>155</ele>
        <time>2023-04-13T12:58:46Z</time>
      </trkpt>
      <trkpt lat="48.52264" lon="-3.41">
        <ele>159</ele>
        <time>2023-04-13T13:00:03Z</time>
      </trkpt>
      <trkpt lat="48.52333" lon="-3.41081">
        <ele>153</ele>
        <time>2023-04-13T13:02:00Z</time>
      </trkpt>
      <trkpt lat="48.52392" lon="-3.41055">
        <ele>156</ele>
        <time>2023-04-13T13:03:22Z</time>
      </trkpt>
      <trkpt lat="48.52426" lon="-3.4106">
        <ele>156</ele>
        <time>2023-04-13T13:04:08Z</time>
      </trkpt>
      <trkpt lat="48.52521" lon="-3.41112">
        <ele>160</ele>
        <time>2023-04-13T13:06:22Z</time>
      </trkpt>
      <trkpt lat="48.52615" lon="-3.41104">
        <ele>165</ele>
        <time>2023-04-13T13:08:28Z</time>
      </trkpt>
      <trkpt lat="48.52629" lon="-3.41188">
        <ele>165</ele>
        <time>2023-04-13T13:09:45Z</time>
      </trkpt>
      <trkpt lat="48.5262" lon="-3.41284">
        <ele>162</ele>
        <time>2023-04-13T13:11:10Z</time>
      </trkpt>
      <trkpt lat="48.52602" lon="-3.41347">
        <ele>160</ele>
        <time>2023-04-13T13:12:11Z</time>
      </trkpt>
      <trkpt lat="48.5259" lon="-3.41431">
        <ele>159</ele>
        <time>2023-04-13T13:13:27Z</time>
      </trkpt>
      <trkpt lat="48.52584" lon="-3.41501">
        <ele>159</ele>
        <time>2023-04-13T13:14:29Z</time>
      </trkpt>
      <trkpt lat="48.5266" lon="-3.41538">
        <ele>165</ele>
        <time>2023-04-13T13:16:16Z</time>
      </trkpt>
      <trkpt lat="48.52751" lon="-3.41564">
        <ele>169</ele>
        <time>2023-04-13T13:18:19Z</time>
      </trkpt>
      <trkpt lat="48.52847" lon="-3.41598">
        <ele>171</ele>
        <time>2023-04-13T13:20:31Z</time>
      </trkpt>
      <trkpt lat="48.52889" lon="-3.41634">
        <ele>173</ele>
        <time>2023-04-13T13:21:36Z</time>
      </trkpt>
      <trkpt lat="48.52945" lon="-3.41652">
        <ele>174</ele>
        <time>2023-04-13T13:22:52Z</time>
      </trkpt>
      <trkpt lat="48.53001" lon="-3.41652">
        <ele>173</ele>
        <time>2023-04-13T13:24:07Z</time>
      </trkpt>
      <trkpt lat="48.53017" lon="-3.41531">
        <ele>172</ele>
        <time>2023-04-13T13:25:56Z</time>
      </trkpt>
      <trkpt lat="48.53041" lon="-3.41444">
        <ele>172</ele>
        <time>2023-04-13T13:27:19Z</time>
      </trkpt>
      <trkpt lat="48.5306" lon="-3.41305">
        <ele>171</ele>
        <time>2023-04-13T13:29:24Z</time>
      </trkpt>
      <trkpt lat="48.53044" lon="-3.41217">
        <ele>170</ele>
        <time>2023-04-13T13:30:45Z</time>
      </trkpt>
      <trkpt lat="48.53076" lon="-3.41136">
        <ele>170</ele>
        <time>2023-04-13T13:32:08Z</time>
      </trkpt>
      <trkpt lat="48.53089" lon="-3.41065">
        <ele>170</ele>
        <time>2023-04-13T13:33:13Z</time>
      </trkpt>
      <trkpt lat="48.53132" lon="-3.40961">
        <ele>171</ele>
        <time>2023-04-13T13:35:02Z</time>
      </trkpt>
      <trkpt lat="48.53161" lon="-3.40867">
        <ele>171</ele>
        <time>2023-04-13T13:36:33Z</time>
      </trkpt>
      <trkpt lat="48.53193" lon="-3.40762">
        <ele>170</ele>
        <time>2023-04-13T13:38:16Z</time>
      </trkpt>
      <trkpt lat="48.53253" lon="-3.40648">
        <ele>166</ele>
        <time>2023-04-13T13:40:24Z</time>
      </trkpt>
      <trkpt lat="48.53303" lon="-3.40564">
        <ele>163</ele>
        <time>2023-04-13T13:42:04Z</time>
      </trkpt>
      <trkpt lat="48.53355" lon="-3.4046">
        <ele>159</ele>
        <time>2023-04-13T13:43:59Z</time>
      </trkpt>
      <trkpt lat="48.53403" lon="-3.40353">
        <ele>155</ele>
        <time>2023-04-13T13:45:53Z</time>
      </trkpt>
      <trkpt lat="48.53436" lon="-3.40345">
        <ele>154</ele>
        <time>2023-04-13T13:46:38Z</time>
      </trkpt>
      <trkpt lat="48.53468" lon="-3.403">
        <ele>152</ele>
        <time>2023-04-13T13:47:36Z</time>
      </trkpt>
      <trkpt lat="48.53475" lon="-3.40253">
        <ele>151</ele>
        <time>2023-04-13T13:48:19Z</time>
      </trkpt>
      <trkpt lat="48.53467" lon="-3.40226">
        <ele>150</ele>
        <time>2023-04-13T13:48:45Z</time>
      </trkpt>
      <trkpt lat="48.5353" lon="-3.40137">
        <ele>147</ele>
        <time>2023-04-13T13:50:40Z</time>
      </trkpt>
      <trkpt lat="48.53586" lon="-3.40075">
        <ele>144</ele>
        <time>2023-04-13T13:52:13Z</time>
      </trkpt>
      <trkpt lat="48.53656" lon="-3.40165">
        <ele>141</ele>
        <time>2023-04-13T13:54:16Z</time>
      </trkpt>
      <trkpt lat="48.53704" lon="-3.40091">
        <ele>136</ele>
        <time>2023-04-13T13:55:47Z</time>
      </trkpt>
      <trkpt lat="48.53724" lon="-3.40079">
        <ele>134</ele>
        <time>2023-04-13T13:56:16Z</time>
      </trkpt>
      <trkpt lat="48.53766" lon="-3.40127">
        <ele>129</ele>
        <time>2023-04-13T13:57:26Z</time>
      </trkpt>
      <trkpt lat="48.53791" lon="-3.40024">
        <ele>122</ele>
        <time>2023-04-13T13:59:03Z</time>
      </trkpt>
      <trkpt lat="48.53791" lon="-3.39971">
        <ele>122</ele>
        <time>2023-04-13T13:59:50Z</time>
      </trkpt>
      <trkpt lat="48.53844" lon="-3.39973">
        <ele>117</ele>
        <time>2023-04-13T14:01:01Z</time>
      </trkpt>
      <trkpt lat="48.53872" lon="-3.39947">
        <ele>114</ele>
        <time>2023-04-13T14:01:45Z</time>
      </trkpt>
      <trkpt lat="48.53891" lon="-3.39921">
        <ele>112</ele>
        <time>2023-04-13T14:02:19Z</time>
      </trkpt>
      <trkpt lat="48.53934" lon="-3.39821">
        <ele>101</ele>
        <time>2023-04-13T14:04:04Z</time>
      </trkpt>
      <trkpt lat="48.5398" lon="-3.39785">
        <ele>102</ele>
        <time>2023-04-13T14:05:13Z</time>
      </trkpt>
      <trkpt lat="48.54012" lon="-3.39777">
        <ele>102</ele>
        <time>2023-04-13T14:05:56Z</time>
      </trkpt>
      <trkpt lat="48.54047" lon="-3.39787">
        <ele>103</ele>
        <time>2023-04-13T14:06:44Z</time>
      </trkpt>
      <trkpt lat="48.54099" lon="-3.39778">
        <ele>102</ele>
        <time>2023-04-13T14:07:54Z</time>
      </trkpt>
      <trkpt lat="48.54159" lon="-3.39797">
        <ele>103</ele>
        <time>2023-04-13T14:09:16Z</time>
      </trkpt>
      <trkpt lat="48.54202" lon="-3.3978">
        <ele>100</ele>
        <time>2023-04-13T14:10:15Z</time>
      </trkpt>
      <trkpt lat="48.54234" lon="-3.39779">
        <ele>99</ele>
        <time>2023-04-13T14:10:58Z</time>
      </trkpt>
      <trkpt lat="48.54255" lon="-3.39797">
        <ele>101</ele>
        <time>2023-04-13T14:11:30Z</time>
      </trkpt>
      <trkpt lat="48.54298" lon="-3.39786">
        <ele>100</ele>
        <time>2023-04-13T14:12:28Z</time>
      </trkpt>
      <trkpt lat="48.5432" lon="-3.3976">
        <ele>96</ele>
        <time>2023-04-13T14:13:05Z</time>
      </trkpt>
      <trkpt lat="48.54372" lon="-3.39773">
        <ele>97</ele>
        <time>2023-04-13T14:14:16Z</time>
      </trkpt>
      <trkpt lat="48.54439" lon="-3.39774">
        <ele>95</ele>
        <time>2023-04-13T14:15:45Z</time>
      </trkpt>
      <trkpt lat="48.54477" lon="-3.39802">
        <ele>95</ele>
        <time>2023-04-13T14:16:42Z</time>
      </trkpt>
      <trkpt lat="48.54501" lon="-3.39822">
        <ele>94</ele>
        <time>2023-04-13T14:17:18Z</time>
      </trkpt>
      <trkpt lat="48.54615" lon="-3.39928">
        <ele>96</ele>
        <time>2023-04-13T14:20:17Z</time>
      </trkpt>
      <trkpt lat="48.547" lon="-3.39877">
        <ele>94</ele>
        <time>2023-04-13T14:22:19Z</time>
      </trkpt>
      <trkpt lat="48.54686" lon="-3.39776">
        <ele>89</ele>
        <time>2023-04-13T14:23:50Z</time>
      </trkpt>
    </trkseg>
  </trk>
</gpx>